[[{"header":{"parameterUnit":"m.s-1","parameterCategory":1,"la1":30.2991,"la2":30.254,"lo1":-89.0895,"lo2":-89.0444,"dy":0.0017,"dx":0.0017,"nx":28,"ny":28,"refTime":"2024-06-17T03:00:00:Z","depth":0,"parameterNumber":2,"parameterNumberName":"U-component_of_WINDS"},"data":[0,0,0,0,0,0,0,0,0,0,0,0,0,0,0,0,0,0,0,0,0,0,0,0,0,0,0,0,0,0,0,0,0,0,0,0,0,0,0,0,0,0,0,0,0,0,0,0,0,0,0,0,0,0,0,0,0,0,-6.2667,-6.2668,0,-6.2774,-6.2775,-6.2776,-6.2714,-6.2711,-6.2708,-6.2705,-6.2811,-6.2816,-6.2822,0,0,0,0,0,0,0,0,0,0,0,0,0,-6.2405,-6.241,-6.2667,-6.2668,-6.267,-6.2774,-6.2775,-6.2777,-6.2715,-6.2711,-6.2707,-6.2704,-6.2809,-6.2816,-6.2822,0,0,0,0,0,0,0,0,0,0,0,0,0,-6.2516,-6.2411,-6.2667,-6.2651,-6.2651,-6.2774,-6.2775,-6.2777,-6.2715,-6.2711,-6.2706,-6.2702,-6.2807,-6.2815,-6.2823,-6.2966,0,0,-6.2849,-6.2853,0,0,0,0,0,0,0,0,-6.2509,-6.2525,-6.2652,-6.2653,-6.2653,-6.2726,-6.2721,-6.284,-6.2717,-6.2691,-6.2705,-6.27,-6.2786,-6.2796,-6.2826,-6.2971,-6.2975,-6.285,-6.2855,-6.2858,-6.2861,0,0,0,0,0,0,0,-6.2502,-6.252,-6.2709,-6.2654,-6.2654,-6.2638,-6.2648,-6.2744,-6.2762,-6.2693,-6.2689,-6.2702,-6.2785,-6.2818,-6.2828,-6.2977,-6.285,-6.2857,-6.2862,-6.2866,-6.324,-6.3245,0,0,0,0,0,0,-6.2496,-6.2514,-6.2706,-6.2712,-6.2569,-6.2646,-6.2658,-6.2707,-6.2761,-6.2765,-6.2706,-6.2699,-6.2806,-6.2818,-6.2831,-6.2998,-6.2858,-6.2866,-6.2871,-6.3235,-6.3241,-6.3246,0,0,0,0,0,0,-6.249,-6.2514,-6.2701,-6.2612,-6.2635,-6.2655,-6.2711,-6.2712,-6.2744,-6.2771,-6.2774,-6.2736,-6.2803,-6.2819,-6.2932,-6.3001,-6.287,-6.2878,-6.3229,-6.3237,-6.3244,-6.3335,0,0,0,0,0,0,-6.2483,-6.2512,-6.2567,-6.2614,-6.264,-6.2802,-6.2715,-6.2717,-6.2759,-6.2751,-6.28,-6.2804,-6.28,-6.292,-6.2941,-6.301,-6.2884,-6.3223,-6.3233,-6.3241,-6.3326,-6.3345,-6.3361,0,0,0,0,0,-6.2474,-6.2589,-6.2571,-6.2594,-6.271,-6.2806,-6.2821,-6.2816,-6.2765,-6.282,-6.2837,-6.2802,-6.2991,-6.2932,-6.2955,-6.3028,-6.3219,-6.323,-6.3241,-6.3318,-6.3341,-6.3361,0,0,0,0,0,0,-6.2548,-6.2595,-6.2575,-6.2709,-6.2754,-6.2796,-6.2864,-6.2841,-6.29,-6.289,-6.288,-6.2892,-6.3008,-6.303,-6.2963,-6.3167,-6.3097,-6.3113,-6.3148,-6.317,-6.3187,-6.3177,-6.2891,0,0,0,0,0,-6.2581,-6.2657,-6.2692,-6.2807,-6.2831,-6.2844,-6.2886,-6.2878,-6.2924,-6.2943,-6.2968,-6.3013,-6.3082,-6.3128,-6.3194,-6.333,-6.3338,-6.3392,-6.3409,-6.3424,-6.3436,-6.3507,-6.353,-6.3283,-6.3283,-6.3282,0,0,-6.2647,-6.2682,-6.273,-6.2823,-6.2857,-6.2933,-6.2861,-6.2945,-6.3001,-6.2955,-6.3062,-6.3083,-6.3133,-6.3257,-6.3313,-6.3279,-6.3507,-6.3438,-6.3449,-6.3454,-6.3521,-6.3544,-6.3565,-6.329,-6.3289,-6.3288,0,0,-6.2807,-6.2843,-6.294,-6.2976,-6.303,-6.3038,-6.3061,-6.3107,-6.3119,-6.3227,-6.3193,-6.3259,-6.338,-6.3415,-6.3449,-6.3622,-6.3591,-6.3644,-6.3733,-6.3802,-6.3822,-6.3839,-6.3897,-6.3918,-6.3658,-6.3658,-6.3658,0,-6.2882,-6.2998,-6.2993,-6.308,-6.312,-6.3084,-6.318,-6.3216,-6.3287,-6.3315,-6.3276,-6.3425,-6.3456,-6.3586,-6.3629,-6.3659,-6.3683,-6.3637,-6.382,-6.3837,-6.3853,-6.3908,-6.393,-6.3664,-6.3663,-6.3662,-6.3662,0,-6.3086,-6.3167,-6.3239,-6.3309,-6.3358,-6.345,-6.3457,-6.3507,-6.3495,-6.3507,-6.3616,-6.3652,-6.3723,-6.3754,-6.3744,-6.3883,-6.3859,-6.3821,-6.3749,-6.3882,-6.3933,-6.3955,-6.3672,-6.367,-6.3668,-6.3667,0,0,-6.3294,-6.336,-6.3386,-6.3417,-6.3473,-6.3534,-6.3624,-6.3694,-6.3735,-6.3786,-6.3858,-6.3961,-6.3925,-6.3964,-6.3957,-6.4018,-6.4148,-6.3971,-6.3972,-6.3999,-6.43,-6.4326,-6.4351,-6.413,-6.4134,-6.4138,-6.4295,0,-6.3454,-6.3611,-6.3608,-6.3753,-6.3825,-6.3792,-6.3869,-6.3911,-6.3924,-6.3986,-6.4001,-6.4072,-6.4022,-6.4044,-6.4104,-6.412,-6.4208,-6.4109,-6.4194,-6.4197,-6.4178,-6.4378,-6.4406,-6.4553,-6.4315,-6.4319,-6.4321,0,-6.3661,-6.3719,-6.3871,-6.3914,-6.3944,-6.4014,-6.4077,-6.4138,-6.4184,-6.4189,-6.4233,-6.4216,-6.4304,-6.4234,-6.4354,-6.4286,-6.4321,-6.4335,-6.434,-6.4345,-6.4264,-6.4384,-6.46,-6.462,-6.4354,-6.4351,-6.4349,0,-6.3792,-6.3909,-6.4013,-6.4041,-6.4095,-6.4144,-6.4169,-6.4211,-6.4253,-6.4308,-6.4334,-6.4399,-6.4433,-6.4483,-6.4483,-6.4432,-6.4604,-6.4533,-6.4607,-6.4607,-6.4642,-6.4639,-6.4862,-6.4672,-6.4671,-6.4671,-6.467,0,-6.3969,-6.4062,-6.4072,-6.4137,-6.4239,-6.4236,-6.4337,-6.4357,-6.4394,-6.446,-6.4436,-6.4498,-6.4497,-6.4559,-6.4561,-6.4658,-6.4675,-6.4679,-6.4677,-6.4679,-6.4678,-6.4699,-6.4687,-6.4677,-6.4675,-6.4674,-6.4673,0,-6.4131,-6.4143,-6.4254,-6.4297,-6.4309,-6.4383,-6.4418,-6.4478,-6.449,-6.4573,-6.4592,-6.461,-6.4682,-6.4689,-6.4773,-6.4774,-6.489,-6.488,-6.4874,-6.4871,-6.4943,-6.4935,-6.5184,-6.5215,-6.5008,-6.5011,-6.5012,0,-6.4242,-6.4312,-6.4362,-6.4405,-6.4432,-6.4502,-6.4544,-6.4543,-6.4588,-6.4645,-6.4697,-6.4768,-6.4823,-6.494,-6.496,-6.5023,-6.5012,-6.5095,-6.5021,-6.5019,-6.5008,-6.5002,-6.5007,-6.5108,-6.511,-6.5112,-6.5113,0,-6.4435,-6.4437,-6.4499,-6.4563,-6.4614,-6.4665,-6.4711,-6.4748,-6.4752,-6.4803,-6.4877,-6.4921,-6.5006,-6.5075,-6.5137,-6.5161,-6.5137,-6.5137,-6.5157,-6.5157,-6.5149,-6.515,-6.4909,-6.513,-6.5129,-6.5127,-6.5126,-6.5126,-6.4572,-6.4632,-6.4676,-6.4745,-6.4781,-6.4825,-6.4882,-6.4901,-6.4963,-6.5033,-6.5029,-6.5109,-6.5152,-6.5233,-6.5262,-6.5323,-6.5295,-6.5325,-6.5331,-6.5338,-6.5343,-6.5143,-6.5335,-6.5335,-6.5334,-6.5334,-6.5334,0,-6.476,-6.4787,-6.4851,-6.4917,-6.4971,-6.4947,-6.4997,-6.5043,-6.5115,-6.5157,-6.5212,-6.5296,-6.5362,-6.5387,-6.5451,-6.5496,-6.5486,-6.5512,-6.5507,-6.5512,-6.5367,-6.5341,-6.5519,-6.5519,-6.5519,-6.5519,-6.5519,-6.5519,-6.4864,-6.4963,-6.497,-6.5086,-6.5111,-6.5191,-6.5221,-6.5261,-6.5294,-6.5388,-6.5443,-6.546,-6.5494,-6.5561,-6.562,-6.5625,-6.5648,-6.5678,-6.5679,-6.5542,-6.5523,-6.5505,-6.5481,-6.5684,-6.5685,-6.5818,-6.582,-6.5821]},{"header":{"parameterUnit":"m.s-1","parameterCategory":1,"la1":30.2991,"la2":30.254,"lo1":-89.0895,"lo2":-89.0444,"dy":0.0017,"dx":0.0017,"nx":28,"ny":28,"refTime":"2024-06-17T03:00:00:Z","depth":0,"parameterNumber":3,"parameterNumberName":"V-component_of_WINDS"},"data":[0,0,0,0,0,0,0,0,0,0,0,0,0,0,0,0,0,0,0,0,0,0,0,0,0,0,0,0,0,0,0,0,0,0,0,0,0,0,0,0,0,0,0,0,0,0,0,0,0,0,0,0,0,0,0,0,0,0,3.6345,3.6344,0,3.6232,3.6231,3.623,3.6035,3.6031,3.6027,3.6024,3.5911,3.5911,3.5911,0,0,0,0,0,0,0,0,0,0,0,0,0,3.6396,3.6396,3.6345,3.6344,3.6343,3.6233,3.6231,3.623,3.6035,3.6031,3.6026,3.6022,3.591,3.5911,3.5911,0,0,0,0,0,0,0,0,0,0,0,0,0,3.6338,3.6396,3.6346,3.6232,3.6221,3.6233,3.6231,3.6229,3.6036,3.6031,3.6025,3.602,3.591,3.5911,3.5911,3.6026,0,0,3.5913,3.5914,0,0,0,0,0,0,0,0,3.6341,3.6336,3.625,3.624,3.6227,3.6142,3.6207,3.6161,3.6038,3.6107,3.6024,3.6017,3.5992,3.5986,3.5977,3.602,3.6015,3.5913,3.5914,3.5914,3.5914,0,0,0,0,0,0,0,3.6345,3.634,3.6301,3.6249,3.6235,3.6188,3.6174,3.6197,3.6082,3.61,3.6086,3.6075,3.5985,3.5977,3.5973,3.6014,3.5913,3.5914,3.5914,3.5915,3.6146,3.6151,0,0,0,0,0,0,3.6366,3.6344,3.6304,3.6297,3.6272,3.6192,3.6176,3.6175,3.6081,3.6061,3.608,3.6066,3.5978,3.5972,3.5968,3.6095,3.5914,3.5915,3.5915,3.614,3.6147,3.6153,0,0,0,0,0,0,3.6368,3.6364,3.6309,3.6317,3.6306,3.6197,3.6198,3.6176,3.6167,3.6065,3.6044,3.6092,3.5974,3.5967,3.6013,3.6088,3.5915,3.5915,3.6133,3.6142,3.615,3.6351,0,0,0,0,0,0,3.637,3.6366,3.6407,3.6319,3.6307,3.6355,3.6202,3.6177,3.6168,3.615,3.6072,3.6053,3.5969,3.6013,3.6013,3.6086,3.5916,3.6126,3.6137,3.6147,3.6337,3.6366,3.639,0,0,0,0,0,3.6372,3.6469,3.641,3.6407,3.6356,3.636,3.6353,3.6253,3.6175,3.6216,3.6151,3.6056,3.6081,3.6019,3.6018,3.6092,3.6121,3.6134,3.6147,3.6325,3.636,3.6389,0,0,0,0,0,0,3.6569,3.6455,3.6389,3.646,3.6421,3.6327,3.6376,3.6293,3.6276,3.6259,3.6136,3.612,3.6182,3.6141,3.6075,3.6198,3.6086,3.6099,3.6222,3.6254,3.628,3.6288,3.5916,0,0,0,0,0,3.6621,3.6633,3.6533,3.6605,3.6589,3.6487,3.6484,3.6411,3.6366,3.6349,3.6287,3.6248,3.6246,3.6248,3.6241,3.6331,3.6311,3.6381,3.6408,3.643,3.6443,3.6488,3.6518,3.6196,3.6196,3.6195,0,0,3.6728,3.6667,3.6682,3.6643,3.6604,3.662,3.6474,3.6497,3.6507,3.6352,3.6391,3.6345,3.6293,3.6362,3.6389,3.633,3.6528,3.6446,3.6465,3.6465,3.6504,3.6535,3.6562,3.6205,3.6203,3.6202,0,0,3.693,3.6885,3.694,3.6905,3.6848,3.6779,3.6793,3.6712,3.6675,3.6712,3.6596,3.6608,3.6608,3.6576,3.656,3.6752,3.6664,3.6754,3.6891,3.6936,3.6961,3.6983,3.7052,3.7078,3.6767,3.6767,3.6768,0,3.707,3.7088,3.6979,3.701,3.6996,3.6857,3.6912,3.6883,3.6828,3.6822,3.6757,3.6755,3.671,3.6769,3.6816,3.6808,3.682,3.6761,3.6966,3.6987,3.7006,3.707,3.7096,3.6779,3.6777,3.6776,3.6775,0,3.7263,3.7278,3.733,3.7279,3.7271,3.7315,3.7214,3.7219,3.7147,3.7086,3.7127,3.7068,3.7047,3.7056,3.6986,3.7106,3.7071,3.6989,3.6873,3.705,3.7108,3.7132,3.6795,3.6791,3.6787,3.6785,0,0,3.7585,3.7474,3.7495,3.7471,3.7398,3.7408,3.7446,3.7425,3.7432,3.74,3.7428,3.7432,3.7355,3.7337,3.7263,3.7303,3.7459,3.7214,3.7211,3.7262,3.7588,3.7651,3.7681,3.74,3.7405,3.7408,3.7592,0,3.7772,3.7828,3.7732,3.7811,3.7824,3.7692,3.7725,3.7685,3.763,3.7633,3.7571,3.7577,3.7474,3.7463,3.7496,3.7433,3.7523,3.7418,3.7426,3.7428,3.7443,3.7711,3.7777,3.7953,3.7614,3.7618,3.7621,0,3.7996,3.7974,3.8055,3.7978,3.798,3.8011,3.7985,3.799,3.7942,3.7899,3.788,3.7792,3.7824,3.7714,3.7757,3.7688,3.7686,3.7656,3.766,3.7656,3.7535,3.7715,3.8007,3.8034,3.7655,3.7653,3.765,0,3.8223,3.8214,3.826,3.8244,3.8156,3.8181,3.8146,3.8092,3.8087,3.8064,3.8059,3.8041,3.8032,3.802,3.793,3.7858,3.7985,3.7866,3.795,3.7953,3.7982,3.7981,3.8278,3.7982,3.7982,3.7981,3.7981,0,3.8441,3.8496,3.8361,3.839,3.8448,3.8338,3.8398,3.835,3.8304,3.8322,3.8208,3.8227,3.8107,3.8114,3.8044,3.809,3.8087,3.8053,3.8034,3.8063,3.8068,3.806,3.8045,3.7988,3.7986,3.7985,3.7984,0,3.8703,3.8615,3.8658,3.8571,3.8551,3.8598,3.8524,3.8548,3.8485,3.851,3.8509,3.8412,3.8414,3.8323,3.8307,3.826,3.8337,3.8296,3.8353,3.834,3.8429,3.8422,3.8731,3.8766,3.8448,3.8452,3.8454,0,3.8848,3.8887,3.8805,3.8808,3.8779,3.8786,3.8779,3.8673,3.8671,3.8621,3.8651,3.8644,3.8632,3.8643,3.8571,3.8558,3.8515,3.8625,3.8513,3.8541,3.8517,3.8516,3.8519,3.8648,3.8652,3.8656,3.8658,0,3.9114,3.9069,3.9063,3.9043,3.9038,3.9018,3.8989,3.8999,3.8883,3.8887,3.8888,3.8879,3.8863,3.8858,3.8832,3.8796,3.8709,3.8694,3.8713,3.8743,3.8775,3.8759,3.8417,3.8687,3.8684,3.8682,3.8681,3.868,3.9321,3.935,3.9297,3.9295,3.9263,3.924,3.9258,3.9198,3.9197,3.9175,3.9113,3.9124,3.9077,3.9033,3.9005,3.9013,3.8959,3.8986,3.8993,3.9001,3.9018,3.8774,3.9008,3.9007,3.9006,3.9005,3.9005,0,3.9581,3.9541,3.954,3.9505,3.9504,3.9421,3.9386,3.9391,3.9402,3.9365,3.9357,3.9358,3.9353,3.9281,3.9268,3.9288,3.9248,3.9288,3.9285,3.9279,3.9067,3.9052,3.9321,3.9321,3.9321,3.9321,3.9321,3.9321,3.9717,3.9761,3.971,3.9738,3.9697,3.9707,3.9694,3.9673,3.9642,3.9649,3.9644,3.9597,3.9547,3.9529,3.952,3.9499,3.95,3.9554,3.952,3.9324,3.9293,3.9264,3.9249,3.9555,3.9555,3.973,3.9732,3.9733]}]]